Regional Weather Roundup
Issued by NWS

Home | Current Version | Previous Version | Text Only | Print | Product List | Glossary Off
Versions: 1 2 3 4 5 6 7 8 9 10 11 12 13 14 15 16 17 18 19 20 21 22 23 24 25 26 27 28 29 30 31 32 33 34 35 36 37 38 39 40 41 42 43 44 45 46 47 48 49 50

000
ASUS43 KDTX 010810
RWRMI
MICHIGAN HOURLY REGIONAL WEATHER ROUNDUP
NATIONAL WEATHER SERVICE DETROIT/PONTIAC MI
300 AM EST SUN FEB 01 2015

NOTE: "FAIR" INDICATES FEW OR NO CLOUDS BELOW 12,000 FEET WITH NO
SIGNIFICANT WEATHER AND/OR OBSTRUCTION TO VISIBILITY.

MIZ047>049-052>055-059>063-066>070-074>076-081>083-010900-
SOUTHEAST LOWER MICHIGAN

CITY           SKY/WX    TMP DP  RH WIND       PRES   REMARKS
ADRIAN         LGT SNOW  29  28  96 NE3       30.17F VSB 1
ALMA           CLOUDY    24  17  74 N8        30.22S WCI  15
ANN ARBOR      LGT SNOW  30  27  88 CALM      30.17S VSB 1
BAD AXE        CLOUDY    20  15  81 N8        30.23R WCI  10
CARO           CLOUDY    20  13  74 N10G17    30.23R WCI   9
DETROIT CITY   CLOUDY    31  23  72 N10       30.19R WCI  22
DETROIT        LGT SNOW  30  27  88 NE3       30.19R VSB 3/4
FLINT          CLOUDY    28  18  66 NE8       30.20R WCI  20
GROSSE ILE     LGT SNOW  30  27  86 CALM      30.17R
HILLSDALE      LGT SNOW  30  30 100 CALM      30.13F
HOWELL         LGT SNOW  26  21  83 NE6       30.17S WCI  19

CITY           SKY/WX    TMP DP  RH WIND       PRES   REMARKS
JACKSON        LGT SNOW  29  26  89 CALM      30.15F VSB 3/4
LAMBERTVILLE   LGT SNOW  32  30  93 CALM      30.18S
LANSING        LGT SNOW  26  21  81 NE9       30.19F WCI  17
LAPEER         CLOUDY    26  18  74 NE8       30.20R WCI  17
MASON          LGT SNOW  25  22  89 NE6       30.17F WCI  18
MONROE         LGT SNOW  30  28  93 NW3       30.16F
MT. CLEMENS    CLOUDY    27  24  88 N9        30.18R WCI  18
PONTIAC        CLOUDY    26  19  74 NE9       30.17R WCI  17
PORT HOPE        N/A     22  17  81 NW6       30.22R WCI  14
PORT HURON     CLOUDY    27  21  80 N12G18    30.21R WCI  16
TRI CITIES     CLOUDY    23  14  68 NE16      30.24R WCI  10
TROY           CLOUDY    30  24  79 N7        30.21R WCI  23
SAGINAW HB     CLOUDY    23  18  80 NE17      30.24R WCI   9
$$
MIZ043>046-050>051-056>058-064>065-071>073-077>080-010900-
SOUTHWEST LOWER MICHIGAN

CITY           SKY/WX    TMP DP  RH WIND       PRES   REMARKS
BATTLE CREEK   LGT SNOW  30  27  88 NE7       30.15F VSB 1   WCI  23
BENTON HARBOR  LGT SNOW  28  27  96 E7        30.14F FOG     WCI  21
BIG RAPIDS     CLOUDY    19  14  79 N7        30.20F WCI  10
COLDWATER      LGT SNOW  29  29  98 E5        30.13F WCI  24
FREMONT        CLOUDY    23  13  68 NE13      30.19F WCI  11
HOLLAND        LGT SNOW  28  23  81 NE12G20   30.17S WCI  18
GRAND RAPIDS   LGT SNOW  25  23  92 NE9       30.18S VSB 1   WCI  15
IONIA          LGT SNOW  26  23  85 NE9       30.17F WCI  17
KALAMAZOO      LGT SNOW  30  27  88 NE3       30.14F VSB 3/4
LUDINGTON      CLOUDY    21  11  67 NE7       30.24F WCI  12
MARSHALL       LGT SNOW  28  27  97 CALM      30.14F
MOUNT PLEASANT CLOUDY    22  15  74 N7        30.22S WCI  13
MUSKEGON       LGT SNOW  25  20  81 NE14      30.19S WCI  13
SOUTH HAVEN    LGT SNOW  30  28  92 NE6       30.14F WCI  24
$$
MIZ016>042-010900-
NORTHERN LOWER MICHIGAN

CITY           SKY/WX    TMP DP  RH WIND       PRES   REMARKS
ALPENA         CLOUDY    11   5  77 NE14      30.30R WCI  -5
BEAVER ISLAND  CLOUDY     9   2  73 CALM      30.33R
BELLAIRE       CLOUDY    14   6  70 N5        30.30S WCI   6
CADILLAC       CLOUDY    13   6  73 NE7       30.21S WCI   3
CHARLEVOIX     CLOUDY    11   3  71 NE7       30.35R WCI   0
FRANKFORT      CLOUDY    18   9  69 E5        30.28S WCI  11
GAYLORD        PTCLDY     9   3  77 VRB3      30.23R
GRAYLING       CLOUDY    13   6  74 NE6       30.25R WCI   4
HARBOR SPRINGS MOCLDY     8   1  70 N5        30.32R WCI   0
HOUGHTON LAKE  CLOUDY    13   5  70 NE7       30.24R WCI   3
MANISTEE       CLOUDY    19   9  63 NE12      30.26F WCI   7
OSCODA         LGT SNOW  16  11  81 N9        30.26R WCI   5
PELLSTON       MOCLDY     7   0  73 NE8       30.33R WCI  -6
TRAVERSE CITY  CLOUDY    17   7  64 NE10      30.28R WCI   5
$$
MIZ007>008-015-010900-
EASTERN UPPER MICHIGAN

CITY           SKY/WX    TMP DP  RH WIND       PRES   REMARKS
KINROSS        MOCLDY    -2  -9  71 NE6       30.34R WCI -14
MACKINAC ISLAN MOCLDY     5  -2  74 NE13G18   30.33R WCI -12
NEWBERRY       CLOUDY     1  -3  85 NE9       30.33R WCI -14
S. S. MARIE    PTCLDY    -4 -15  59 NE10      30.36R WCI -21
MUNISING         N/A     12   4  70 NE12      30.35R WCI  -2
$$
MIZ004>006-011>014-085-010900-
CENTRAL UPPER MICHIGAN

CITY           SKY/WX    TMP DP  RH WIND       PRES   REMARKS
MANISTIQUE     MOCLDY     9   3  77 N5        30.34R WCI   1
ESCANABA       CLOUDY    10   7  85 N5        30.34S WCI   2
MENOMINEE      CLOUDY    10   3  72 N9        30.31F WCI  -2
SAWYER-GWINN   LGT SNOW  10   5  79 NE8       30.30R WCI  -2
$$
MIZ001>003-009>011-084-010900-
WESTERN UPPER MICHIGAN

CITY           SKY/WX    TMP DP  RH WIND       PRES   REMARKS
IRON MOUNTAIN  CLOUDY     7   0  73 NW7       30.30S WCI  -5
HOUGHTON       LGT SNOW   2  -2  83 N3        30.35S FOG
COPPER HARBOR    N/A     11   3  70 E14       30.40R WCI  -5
IRONWOOD       CLOUDY     5   0  78 E10       30.31R WCI -10
$$

ABBREVIATIONS USED IN REMARKS
   TC - TEMPERATURE IN CELSIUS
  WCI - WIND CHILL INDEX
   HX - HEAT INDEX
  VSB - VISIBILITY



USA.gov is the U.S. government's official web portal to all federal, state and local government web resources and services.